| time (UTC) | temp F | wind direction | speed MPH | gust MPH | rain 1hr in | rain 24hr in | rain mn in | humidity % | barometer mb |
| 20260903033518 | 92 | 0 | 1.0 | 4.0 | 0.00 | 0.00 | 0.00 | 32 | 1012.2 |
| 20260903032537 | 92 | 0.0 | 2.0 | 0.00 | 0.00 | 0.00 | 32 | 1012.1 | |
| 20260903031537 | 92 | 0.0 | 2.0 | 0.00 | 0.00 | 0.00 | 32 | 1012.0 | |
| 20260903030517 | 92 | 0.0 | 2.0 | 0.00 | 0.00 | 0.00 | 31 | 1011.9 | |
| 20260903025517 | 93 | 0.0 | 2.0 | 0.00 | 0.00 | 0.00 | 31 | 1011.8 | |
| 20260903024517 | 93 | 0 | 1.0 | 3.0 | 0.00 | 0.00 | 0.00 | 31 | 1011.7 |
| 20260903023517 | 93 | 0 | 1.0 | 3.0 | 0.00 | 0.00 | 0.00 | 31 | 1011.6 |
| 20260903022517 | 93 | 0 | 1.0 | 3.0 | 0.00 | 0.00 | 0.00 | 31 | 1011.5 |
| 20260903021537 | 93 | 0 | 2.0 | 4.0 | 0.00 | 0.00 | 0.00 | 31 | 1011.2 |
| 20260903020517 | 93 | 0.0 | 2.0 | 0.00 | 0.00 | 0.00 | 31 | 1011.2 | |
| 20260903015517 | 93 | 0 | 1.0 | 2.0 | 0.00 | 0.00 | 0.00 | 30 | 1011.1 |
| 20260903014517 | 94 | 0 | 1.0 | 4.0 | 0.00 | 0.00 | 0.00 | 31 | 1011.0 |
| 20260903013537 | 94 | 0 | 1.0 | 3.0 | 0.00 | 0.00 | 0.00 | 31 | 1011.1 |
| 20260903012517 | 95 | 0.0 | 3.0 | 0.00 | 0.00 | 0.00 | 31 | 1011.0 | |
| 20260903011537 | 95 | 0 | 1.0 | 4.0 | 0.00 | 0.00 | 0.00 | 31 | 1011.1 |
| 20260903010537 | 96 | 0 | 1.0 | 2.0 | 0.00 | 0.00 | 0.00 | 30 | 1011.1 |
| 20260903005517 | 96 | 0 | 1.0 | 4.0 | 0.00 | 0.00 | 0.00 | 30 | 1011.2 |
| 20260903004517 | 96 | 0 | 2.0 | 5.0 | 0.00 | 0.00 | 0.00 | 30 | 1011.2 |
| 20260903003516 | 96 | 0 | 1.0 | 4.0 | 0.00 | 0.00 | 0.00 | 29 | 1011.2 |
| 20260903002517 | 97 | 225 | 1.0 | 3.0 | 0.00 | 0.00 | 0.00 | 29 | 1011.3 |
| 20260903001516 | 97 | 248 | 1.0 | 4.0 | 0.00 | 0.00 | 0.00 | 29 | 1011.3 |
| 20260903000518 | 97 | 0 | 3.0 | 6.0 | 0.00 | 0.00 | 0.00 | 28 | 1011.4 |
| 20260902235516 | 98 | 248 | 2.0 | 4.0 | 0.00 | 0.00 | 0.00 | 28 | 1011.6 |
| 20260902234516 | 99 | 225 | 1.0 | 4.0 | 0.00 | 0.00 | 0.00 | 28 | 1011.6 |
| 20260902233516 | 99 | 180 | 1.0 | 4.0 | 0.00 | 0.00 | 0.00 | 28 | 1011.7 |
| 20260902232516 | 100 | 225 | 1.0 | 4.0 | 0.00 | 0.00 | 0.00 | 27 | 1012.0 |
| 20260902231516 | 100 | 203 | 2.0 | 4.0 | 0.00 | 0.00 | 0.00 | 26 | 1012.1 |
| 20260902230537 | 100 | 180 | 2.0 | 7.0 | 0.00 | 0.00 | 0.00 | 26 | 1012.2 |
| 20260902225517 | 100 | 180 | 1.0 | 5.0 | 0.00 | 0.00 | 0.00 | 27 | 1012.3 |
| 20260902224516 | 100 | 248 | 2.0 | 5.0 | 0.00 | 0.00 | 0.00 | 26 | 1012.5 |
| 20260902223516 | 99 | 180 | 1.0 | 3.0 | 0.00 | 0.00 | 0.00 | 27 | 1012.6 |
| 20260902222516 | 99 | 203 | 1.0 | 4.0 | 0.00 | 0.00 | 0.00 | 27 | 1012.8 |
| 20260902221516 | 100 | 225 | 1.0 | 4.0 | 0.00 | 0.00 | 0.00 | 27 | 1013.0 |
| 20260902220517 | 100 | 180 | 3.0 | 9.0 | 0.00 | 0.00 | 0.00 | 27 | 1013.0 |
| 20260902215516 | 99 | 270 | 1.0 | 6.0 | 0.00 | 0.00 | 0.00 | 28 | 1013.1 |
| 20260902214536 | 99 | 180 | 2.0 | 8.0 | 0.00 | 0.00 | 0.00 | 29 | 1013.2 |
| 20260902213537 | 98 | 180 | 4.0 | 8.0 | 0.00 | 0.00 | 0.00 | 30 | 1013.3 |
| 20260902212516 | 99 | 0 | 1.0 | 3.0 | 0.00 | 0.00 | 0.00 | 28 | 1013.3 |
| 20260902211516 | 98 | 0 | 2.0 | 6.0 | 0.00 | 0.00 | 0.00 | 30 | 1013.5 |
| 20260902210536 | 97 | 0 | 2.0 | 5.0 | 0.00 | 0.00 | 0.00 | 29 | 1013.6 |
| 20260902205516 | 97 | 0 | 3.0 | 9.0 | 0.00 | 0.00 | 0.00 | 30 | 1013.9 |
| 20260902204516 | 96 | 0 | 3.0 | 8.0 | 0.00 | 0.00 | 0.00 | 31 | 1013.8 |
| 20260902203536 | 97 | 0 | 5.0 | 9.0 | 0.00 | 0.00 | 0.00 | 30 | 1014.3 |
| 20260902202516 | 97 | 0 | 5.0 | 9.0 | 0.00 | 0.00 | 0.00 | 30 | 1014.4 |
| 20260902201539 | 97 | 0 | 3.0 | 7.0 | 0.00 | 0.00 | 0.00 | 29 | 1014.4 |
| 20260902200516 | 96 | 0 | 3.0 | 8.0 | 0.00 | 0.00 | 0.00 | 31 | 1014.5 |
| 20260902195516 | 96 | 0 | 6.0 | 11.0 | 0.00 | 0.00 | 0.00 | 31 | 1014.7 |
| 20260902194516 | 97 | 0 | 4.0 | 12.0 | 0.00 | 0.00 | 0.00 | 30 | 1014.9 |
| 20260902193516 | 97 | 0 | 3.0 | 8.0 | 0.00 | 0.00 | 0.00 | 31 | 1015.2 |
| 20260902192536 | 96 | 0 | 2.0 | 5.0 | 0.00 | 0.00 | 0.00 | 33 | 1015.1 |
| 20260902191536 | 96 | 0 | 2.0 | 8.0 | 0.00 | 0.00 | 0.00 | 32 | 1015.3 |
| 20260902190516 | 95 | 0 | 4.0 | 7.0 | 0.00 | 0.00 | 0.00 | 31 | 1015.5 |
| 20260902185516 | 95 | 0 | 4.0 | 9.0 | 0.00 | 0.00 | 0.00 | 32 | 1015.5 |
| 20260902184536 | 94 | 0 | 3.0 | 7.0 | 0.00 | 0.00 | 0.00 | 34 | 1015.6 |
| 20260902183556 | 94 | 0 | 5.0 | 10.0 | 0.00 | 0.00 | 0.00 | 35 | 1015.7 |
| 20260902182516 | 94 | 0 | 4.0 | 9.0 | 0.00 | 0.00 | 0.00 | 39 | 1016.0 |
| 20260902181516 | 94 | 0 | 3.0 | 5.0 | 0.00 | 0.00 | 0.00 | 39 | 1016.1 |
| 20260902180516 | 93 | 0 | 3.0 | 7.0 | 0.00 | 0.00 | 0.00 | 41 | 1016.2 |
| 20260902175515 | 93 | 0 | 2.0 | 4.0 | 0.00 | 0.00 | 0.00 | 42 | 1016.2 |
| 20260902174515 | 92 | 0 | 2.0 | 5.0 | 0.00 | 0.00 | 0.00 | 43 | 1016.2 |
| 20260902173515 | 92 | 0 | 3.0 | 5.0 | 0.00 | 0.00 | 0.00 | 44 | 1016.3 |
| 20260902172515 | 91 | 0 | 2.0 | 7.0 | 0.00 | 0.00 | 0.00 | 45 | 1016.3 |
| 20260902171516 | 92 | 0 | 3.0 | 7.0 | 0.00 | 0.00 | 0.00 | 45 | 1016.4 |
| 20260902170515 | 91 | 0 | 3.0 | 9.0 | 0.00 | 0.00 | 0.00 | 44 | 1016.2 |
| 20260902165536 | 91 | 0 | 2.0 | 4.0 | 0.00 | 0.00 | 0.00 | 46 | 1016.3 |
| 20260902164515 | 90 | 0 | 1.0 | 3.0 | 0.00 | 0.00 | 0.00 | 47 | 1016.3 |
| 20260902163516 | 90 | 0 | 3.0 | 6.0 | 0.00 | 0.00 | 0.00 | 47 | 1016.2 |
| 20260902162515 | 89 | 0 | 2.0 | 6.0 | 0.00 | 0.00 | 0.00 | 49 | 1016.3 |
| 20260902161515 | 89 | 0 | 3.0 | 5.0 | 0.00 | 0.00 | 0.00 | 50 | 1016.3 |
| 20260902160536 | 88 | 0 | 2.0 | 5.0 | 0.00 | 0.00 | 0.00 | 50 | 1016.2 |
| 20260902155517 | 87 | 0 | 3.0 | 6.0 | 0.00 | 0.00 | 0.00 | 52 | 1016.1 |
| 20260902154518 | 87 | 0 | 4.0 | 8.0 | 0.00 | 0.00 | 0.00 | 52 | 1016.0 |
| 20260902153517 | 87 | 0 | 3.0 | 6.0 | 0.00 | 0.00 | 0.00 | 52 | 1016.1 |
| 20260902152537 | 87 | 0 | 1.0 | 5.0 | 0.00 | 0.00 | 0.00 | 52 | 1016.0 |
| 20260902151517 | 87 | 0 | 1.0 | 4.0 | 0.00 | 0.00 | 0.00 | 52 | 1016.1 |
| 20260902150517 | 86 | 0 | 1.0 | 2.0 | 0.00 | 0.00 | 0.00 | 54 | 1016.1 |
| 20260902145517 | 85 | 0 | 1.0 | 3.0 | 0.00 | 0.00 | 0.00 | 54 | 1015.9 |
| 20260902144537 | 84 | 0 | 1.0 | 3.0 | 0.00 | 0.00 | 0.00 | 56 | 1015.8 |
| 20260902143517 | 84 | 0 | 1.0 | 2.0 | 0.00 | 0.00 | 0.00 | 58 | 1015.8 |
| 20260902142538 | 84 | 0.0 | 2.0 | 0.00 | 0.00 | 0.00 | 58 | 1015.7 | |
| 20260902142037 | 84 | 0.0 | 2.0 | 0.00 | 0.00 | 0.00 | 57 | 1015.6 | |
| 20260902141017 | 84 | 0.0 | 0.0 | 0.00 | 0.00 | 0.00 | 57 | 1015.5 | |
| 20260902140017 | 83 | 0.0 | 1.0 | 0.00 | 0.00 | 0.00 | 57 | 1015.3 | |
| 20260902135038 | 82 | 0.0 | 0.0 | 0.00 | 0.00 | 0.00 | 58 | 1015.2 | |
| 20260902134017 | 81 | 0.0 | 0.0 | 0.00 | 0.00 | 0.00 | 60 | 1015.0 | |
| 20260902133038 | 80 | 0.0 | 0.0 | 0.00 | 0.00 | 0.00 | 61 | 1014.9 | |
| 20260902132017 | 80 | 0.0 | 0.0 | 0.00 | 0.00 | 0.00 | 61 | 1014.8 | |
| 20260902131037 | 80 | 0.0 | 0.0 | 0.00 | 0.00 | 0.00 | 62 | 1014.7 | |
| 20260902130017 | 80 | 0.0 | 0.0 | 0.00 | 0.00 | 0.00 | 61 | 1014.6 | |
| 20260902125017 | 80 | 0.0 | 0.0 | 0.00 | 0.00 | 0.00 | 62 | 1014.6 | |
| 20260902124017 | 80 | 0.0 | 0.0 | 0.00 | 0.00 | 0.00 | 62 | 1014.5 | |
| 20260902123017 | 80 | 0.0 | 0.0 | 0.00 | 0.00 | 0.00 | 62 | 1014.5 | |
| 20260902122017 | 80 | 0.0 | 0.0 | 0.00 | 0.00 | 0.00 | 63 | 1014.5 | |
| 20260902121017 | 80 | 0.0 | 0.0 | 0.00 | 0.00 | 0.00 | 61 | 1014.4 | |
| 20260902120017 | 80 | 0.0 | 0.0 | 0.00 | 0.00 | 0.00 | 61 | 1014.6 | |
| 20260902115017 | 80 | 0.0 | 0.0 | 0.00 | 0.00 | 0.00 | 60 | 1014.5 | |
| 20260902114017 | 80 | 0.0 | 1.0 | 0.00 | 0.00 | 0.00 | 61 | 1014.6 | |
| 20260902113017 | 80 | 0.0 | 0.0 | 0.00 | 0.00 | 0.00 | 60 | 1014.6 | |
| 20260902112017 | 80 | 0.0 | 0.0 | 0.00 | 0.00 | 0.00 | 60 | 1014.5 | |
| 20260902111016 | 81 | 0.0 | 0.0 | 0.00 | 0.00 | 0.00 | 61 | 1014.5 | |
| 20260902110017 | 81 | 0.0 | 0.0 | 0.00 | 0.00 | 0.00 | 61 | 1014.6 | |
| 20260902105017 | 81 | 0.0 | 0.0 | 0.00 | 0.00 | 0.00 | 60 | 1014.7 | |
| 20260902104016 | 81 | 0.0 | 0.0 | 0.00 | 0.00 | 0.00 | 59 | 1014.8 | |
| 20260902103018 | 82 | 0.0 | 0.0 | 0.00 | 0.00 | 0.00 | 59 | 1014.7 | |
| 20260902102017 | 82 | 0.0 | 0.0 | 0.00 | 0.00 | 0.00 | 58 | 1014.6 | |
| 20260902101057 | 82 | 0.0 | 0.0 | 0.00 | 0.00 | 0.00 | 58 | 1014.7 | |
| 20260902100017 | 83 | 0.0 | 0.0 | 0.00 | 0.00 | 0.00 | 56 | 1014.6 | |
| 20260902095016 | 83 | 0.0 | 1.0 | 0.00 | 0.00 | 0.00 | 56 | 1014.6 | |
| 20260902094017 | 83 | 0.0 | 2.0 | 0.00 | 0.00 | 0.00 | 55 | 1014.6 | |
| 20260902093017 | 84 | 0.0 | 1.0 | 0.00 | 0.00 | 0.00 | 54 | 1014.6 | |
| 20260902092016 | 84 | 0.0 | 0.0 | 0.00 | 0.00 | 0.00 | 54 | 1014.7 | |
| 20260902091017 | 85 | 0.0 | 3.0 | 0.00 | 0.00 | 0.00 | 53 | 1014.9 | |
| 20260902090016 | 85 | 0.0 | 3.0 | 0.00 | 0.00 | 0.00 | 53 | 1014.7 | |
| 20260902085017 | 85 | 0 | 1.0 | 3.0 | 0.00 | 0.00 | 0.00 | 52 | 1014.7 |
| 20260902084017 | 86 | 0 | 1.0 | 3.0 | 0.00 | 0.00 | 0.00 | 51 | 1014.8 |
| 20260902083036 | 86 | 0 | 2.0 | 3.0 | 0.00 | 0.00 | 0.00 | 51 | 1014.7 |
| 20260902082016 | 86 | 0 | 1.0 | 4.0 | 0.00 | 0.00 | 0.00 | 52 | 1014.7 |
| 20260902081016 | 85 | 0 | 2.0 | 4.0 | 0.00 | 0.00 | 0.00 | 53 | 1014.8 |
| 20260902080017 | 84 | 0.0 | 2.0 | 0.00 | 0.00 | 0.00 | 54 | 1014.6 | |
| 20260902075016 | 84 | 0.0 | 0.0 | 0.00 | 0.00 | 0.00 | 53 | 1014.5 | |
| 20260902074016 | 84 | 0.0 | 0.0 | 0.00 | 0.00 | 0.00 | 53 | 1014.4 | |
| 20260902073016 | 84 | 0.0 | 0.0 | 0.00 | 0.00 | 0.00 | 51 | 1014.4 | |
| 20260902072036 | 85 | 0.0 | 0.0 | 0.00 | 0.00 | 0.00 | 50 | 1014.4 | |
| 20260902071016 | 85 | 0.0 | 0.0 | 0.00 | 0.00 | 0.00 | 50 | 1014.4 | |
| 20260902070016 | 85 | 0.0 | 0.0 | 0.00 | 0.00 | 0.00 | 50 | 1014.3 | |
| 20260902065016 | 85 | 0.0 | 0.0 | 0.00 | 0.00 | 0.00 | 50 | 1014.3 | |
| 20260902064035 | 86 | 0.0 | 1.0 | 0.00 | 0.00 | 0.00 | 49 | 1014.5 | |
| 20260902063015 | 86 | 0 | 1.0 | 2.0 | 0.00 | 0.00 | 0.00 | 46 | 1014.4 |
| 20260902062016 | 86 | 0.0 | 0.0 | 0.00 | 0.00 | 0.00 | 44 | 1014.2 | |
| 20260902061015 | 87 | 0.0 | 1.0 | 0.00 | 0.00 | 0.00 | 44 | 1014.4 | |
| 20260902060015 | 87 | 0.0 | 0.0 | 0.00 | 0.00 | 0.00 | 44 | 1014.2 | |
| 20260902055015 | 87 | 0.0 | 2.0 | 0.00 | 0.00 | 0.00 | 44 | 1014.2 | |
| 20260902054015 | 87 | 0.0 | 0.0 | 0.00 | 0.00 | 0.00 | 44 | 1014.2 | |
| 20260902053015 | 87 | 0.0 | 0.0 | 0.00 | 0.00 | 0.00 | 44 | 1014.2 | |
| 20260902052015 | 87 | 0.0 | 1.0 | 0.00 | 0.00 | 0.00 | 44 | 1014.2 | |
| 20260902051018 | 87 | 0.0 | 0.0 | 0.00 | 0.00 | 0.00 | 44 | 1014.1 | |
| 20260902050037 | 87 | 0.0 | 1.0 | 0.00 | 0.00 | 0.00 | 44 | 1014.2 | |
| 20260902045017 | 88 | 0.0 | 1.0 | 0.00 | 0.00 | 0.00 | 44 | 1014.1 | |
| 20260902044037 | 87 | 0.0 | 1.0 | 0.00 | 0.00 | 0.00 | 44 | 1014.1 | |
| 20260902043037 | 87 | 0.0 | 1.0 | 0.00 | 0.00 | 0.00 | 45 | 1014.0 | |
| 20260902042037 | 87 | 0.0 | 1.0 | 0.00 | 0.00 | 0.00 | 45 | 1014.0 | |
| 20260902041017 | 88 | 0.0 | 0.0 | 0.00 | 0.00 | 0.00 | 45 | 1013.8 | |
| 20260902040017 | 88 | 0.0 | 1.0 | 0.00 | 0.00 | 0.00 | 45 | 1013.7 | |
| 20260902035017 | 88 | 0.0 | 0.0 | 0.00 | 0.00 | 0.00 | 44 | 1013.6 | |
| 20260902034017 | 88 | 0.0 | 1.0 | 0.00 | 0.00 | 0.00 | 42 | 1013.3 |